Location: White Mills Observatory
(37.5374°N, 86.0303°W)
Time: 09:52:24
(UTC-04:00)

Hubble Space Telescope - Visible Passes

Search period start: 01 August 2015 00:00
Search period end: 11 August 2015 00:00
Orbit: 541 x 545 km, 28.5° (Epoch: 31 July)

Date Brightness Start Highest point End Pass type
(mag) Time Alt. Az. Time Alt. Az. Time Alt. Az.
02 Aug 3.2 22:34:25 10° SSW 22:34:32 10° SSW 22:34:32 10° SSW visible
03 Aug 2.7 22:25:07 10° SSW 22:26:39 16° S 22:26:39 16° S visible
04 Aug 2.4 22:15:54 10° SW 22:18:35 19° S 22:18:35 19° S visible
05 Aug 2.2 22:06:48 10° SW 22:09:57 21° S 22:10:22 21° SSE visible
06 Aug 2.2 21:57:44 10° SW 22:00:59 22° S 22:02:04 20° SSE visible
07 Aug 2.2 21:48:43 10° SW 21:52:01 23° S 21:53:40 18° SE visible
08 Aug 2.2 21:39:44 10° SW 21:43:04 23° S 21:45:12 16° SE visible
09 Aug 2.3 21:30:48 10° SW 21:34:05 23° S 21:36:42 13° SE visible
10 Aug 2.4 21:21:54 10° WSW 21:25:07 22° S 21:28:11 11° SE visible
